レモン彗星

C/2017 E5 ( Lemmon )

English version
Home page
Updated on July 6, 2017

---------------------------------------------------------------------

・ プロフィール

発見日 2017年3月4日
発見光度 20.1等
発見者 G. J. Leonard (Mount Lemmon)

・ 写真集

・ 軌道要素

Epoch 2016 June 21.0 TT = JDT 2457560.5
T 2016 June 10.88992 TT                                 MPCW
q   1.7841718            (2000.0)            P               Q
z  +0.0024775      Peri.  306.80058     -0.34691851     -0.86108538
 +/-0.0000578      Node   206.19355     -0.32984915     -0.25900387
e   0.9955796      Incl.  122.63312     -0.87797898     +0.43754882
From 74 observations 2017 Feb. 9-Mar. 31, mean residual 0".5.

・ 星図

・ 光度変化

        m1 = 12.0 + 5 logΔ + 10.0 log r

---------------------------------------------------------------------

軌道要素はM.P.E.C. 2017-L52に掲載されたものです。
星図はステラナビゲータ Ver.10 (アストロアーツ) で作成したものです。
光度グラフはComet for Windowsで作成したものです。

---------------------------------------------------------------------

Copyright(C) Seiichi Yoshida (comet@aerith.net). All rights reserved.